DAAD

Bou Saada Airport

Airport
ICAO code
DAAD
Summary
ICAO Region
AFI
ICAO Territory
Location

, M'sila

Serving
Bou Saada
Elevation
1506 ft
Coordinates
35° 19' 57" N , 4° 12' 23" E
Metar
DAAD 191200Z 01010KT CAVOK 19/M03 Q1020

Runways

Designator Length Width Surface Rops
4/22 2200 30 ASP No/No

Airport map

Aerial View

SKYbrary Partners:

Safety knowledge contributed by: